User: anonymous
Location: Unspecified
(0.0000°N, 0.0000°E)
Time: 03:18:11
(UTC+02:00)
Language:

GP-B - Orbit

View from above orbital plane
View from above orbital plane
View from above satellite
View from above satellite

Ground track
Ground track

The orbit data is extracted from the following two-line orbital elements,

1 28230U 04014A   14210.78289205  .00000522  00000-0  70991-4 0  1130
2 28230 089.8909 139.4211 0002130 093.8892 266.2573 14.77571694553483
Epoch (UTC): 29 July 2014 18:47:21
Eccentricity: 0.0002130
inclination: 89.8909°
perigee height: 635 km
apogee height: 638 km
right ascension of ascending node: 139.4211°
argument of perigee: 93.8892°
revolutions per day: 14.77571694
mean anomaly at epoch: 266.2573°
orbit number at epoch: 55348

The dashed part of the orbit path shows where the satellite is in the earth's shadow,  

DLR